Regional Weather Roundup
Issued by NWS

Home | Current Version | Previous Version | Text Only | Print | Product List | Glossary Off
Versions: 1 2 3 4 5 6 7 8 9 10 11 12 13 14 15 16 17 18 19 20 21 22 23 24 25 26 27 28 29 30 31 32 33 34 35 36 37 38 39 40 41 42 43 44 45 46 47 48 49 50

000
ASUS43 KMPX 281501
RWRMN
WEATHER ROUNDUP FOR MINNESOTA
NATIONAL WEATHER SERVICE TWIN CITIES/CHANHASSEN MN
1000 AM CDT MON JUL 28 2014


NOTE: "FAIR" INDICATES FEW OR NO CLOUDS BELOW 12,000 FEET WITH NO
SIGNIFICANT WEATHER AND/OR OBSTRUCTIONS TO VISIBILITY. N/A MEANS
CURRENT SKY AND/OR WEATHER CONDITIONS ARE NOT AVAILABLE.

MNZ060>063-068>070-281600-
   Twin Cities Metro

CITY           SKY/WX    TMP DP  RH WIND       PRES   REMARKS
TWIN CITIES    CLOUDY    68  57  68 NW9       30.21R
ST PAUL        CLOUDY    66  56  70 NW6       30.20S
CRYSTAL        CLOUDY    69  57  65 NW5       30.20R
LAKEVILLE      CLOUDY    64  57  77 NW7       30.21R
EDEN PRAIRIE   CLOUDY    68  57  68 NW8       30.20R
SOUTH ST PAUL  CLOUDY    67  56  68 N5        30.20S
LAKE ELMO      CLOUDY    64  59  82 NW3       30.21S
$$
MNZ001>005-007-008-013>017-022>024-027-028-281600-
   Northwest Minnesota

CITY           SKY/WX    TMP DP  RH WIND       PRES   REMARKS
BEMIDJI        SUNNY     66  56  69 W6        30.24S
HALLOCK        SUNNY     64  57  77 NW6       30.27S
ROSEAU         SUNNY     66  57  72 NW5       30.25S
WARROAD        SUNNY     66  59  77 NW6       30.25S
THIEF RVR FALL CLOUDY    66  54  63 NW10      30.27S
CROOKSTON      CLOUDY    64  57  77 NW8       30.29R
FOSSTON        CLOUDY    64  55  72 NW7       30.28R
DETROIT LAKES  MOSUNNY   63  57  82 N8        30.28S
MOORHEAD       CLOUDY    63  61  94 NW5       30.29S
PARK RAPIDS    SUNNY     67  56  67 NW8       30.25R
$$
MNZ006-009>011-018-025>026-281600-
   North Central Minnesota

CITY           SKY/WX    TMP DP  RH WIND       PRES   REMARKS
BAUDETTE       SUNNY     68  58  70 NW9       30.24R
FLAG ISLAND    SUNNY     64  55  72 W8        30.22S
INTL FALLS     SUNNY     68  55  63 NW8       30.20S
WASKISH        SUNNY     68  59  73 CALM      30.23S
BIG FORK       SUNNY     66  55  68 N5        30.22S
LONGVILLE      SUNNY     66  55  68 NW5       30.23R
GRAND RAPIDS   SUNNY     66  54  63 W8        30.22S
CRANE LAKE     SUNNY     64  55  72 NW7       30.19F
ORR            SUNNY     64  54  68 NW7       30.18S
COOK           SUNNY     64  54  68 W7        30.20S
$$
MNZ012-019>021-037-281600-
   Northeast Minnesota

CITY           SKY/WX    TMP DP  RH WIND       PRES   REMARKS
DULUTH         MOSUNNY   67  54  63 NW10      30.18S
ELY            SUNNY     64  54  68 NW9       30.17S
HIBBING        SUNNY     67  53  61 NW13      30.21S
EVELETH        SUNNY     64  52  63 NW8       30.20F
DULUTH HARBOR  SUNNY     70  55  60 NW10      30.17S
TWO HARBORS    SUNNY     66  54  63 NW6       30.15S
SILVER BAY     SUNNY     66  57  72 NW5       30.13F
GRAND MARAIS     N/A     72  54  53 NW8       30.09F
G MARAIS ARPRT   N/A     64  50  59 NW7G21    30.14S
$$
MNZ029>031-032-039>041-046>048-054>057-064-281600-
   West Central Minnesota

CITY           SKY/WX    TMP DP  RH WIND       PRES   REMARKS
FERGUS FALLS   CLOUDY    61  55  82 N6        30.28R
MORRIS         PTSUNNY   66  61  82 NW9       30.26S
ALEXANDRIA     CLOUDY    63  57  81 NW6       30.27S
ELBOW LAKE     CLOUDY    60  57  90 NW8       30.27S
WADENA         CLOUDY    63  57  82 NW6       30.25S
GLENWOOD       CLOUDY    63  57  82 NW6       30.26S
APPLETON       MOSUNNY   70  57  64 NW8       30.26S
BENSON         MOSUNNY   70  61  73 NE8       30.26S
ORTONVILLE     CLOUDY    66  55  68 NW9       30.27S
MADISON        MOSUNNY   68  59  73 N10       30.27S
WILLMAR        FAIR      66  55  68 N8        30.26S
$$
MNZ033>034-036-042>043-049>051-058-059-281600-
   Central Minnesota

CITY           SKY/WX    TMP DP  RH WIND       PRES   REMARKS
ST CLOUD       CLOUDY    69  58  67 NW7       30.22R
SAUK CENTRE    CLOUDY    64  58  81 NW8       30.25S
PAYNESVILLE    CLOUDY    61  56  84 NW6       30.25S
AITKIN         SUNNY     70  57  64 NW5       30.21R
PINE RIVER     SUNNY     68  55  64 N6        30.26R
BRAINERD       SUNNY     68  54  60 N9        30.23S
STAPLES        PTSUNNY   64  55  72 NW5       30.24S
LONG PRAIRIE   CLOUDY    63  55  77 W7        30.25S
LITTLE FALLS   MOSUNNY   66  55  68 NW6       30.23S
LITCHFIELD     CLOUDY    64  63  94 NW5       30.24S
BUFFALO        CLOUDY    67  57  70 NW5       30.23S
MAPLE LAKE     CLOUDY    67  60  78 NW3       30.23S
$$
MNZ037-044-045-052-053-281600-
   East Central Minnesota

CITY           SKY/WX    TMP DP  RH WIND       PRES   REMARKS
PRINCETON      CLOUDY    70  59  68 NW5       30.21S
MORA           PTSUNNY   64  55  72 CALM      30.23R
CAMBRIDGE      CLOUDY    68  55  64 CALM      30.19S
RUSH CITY      CLOUDY    65  57  76 CALM      30.21S
MOOSE LAKE     SUNNY     66  55  68 N3        30.18S
HINCKLEY       CLOUDY    64  57  77 NW6       30.20S
CLOQUET        SUNNY     66  54  63 N12       30.19S
MCGREGOR       SUNNY     66  55  68 N7        30.22R
$$
MNZ071>073-080-081-089-090-097-098-281600-
   Southwest Minnesota

CITY           SKY/WX    TMP DP  RH WIND       PRES   REMARKS
MONTEVIDEO     PTSUNNY   66  61  82 N6        30.27R
GRANITE FALLS  CLOUDY    65  60  81 NW8       30.27S
CANBY          CLOUDY    67  57  71 NW9       30.29S
MARSHALL       CLOUDY    64  57  77 N9        30.26S
REDWOOD FALLS  CLOUDY    67  61  81 N7        30.24S
OLIVIA         CLOUDY    68  61  77 N6        30.24S
PIPESTONE      PTSUNNY   64  57  77 NE12      30.28S
WINDOM         PTSUNNY   66  59  77 NW10      30.25S
WORTHINGTON    CLOUDY    63  57  82 N8        30.27S
JACKSON        CLOUDY    64  57  77 N5        30.25S
TRACY          CLOUDY    65  61  86 CALM      30.27S
SLAYTON        CLOUDY    64  58  81 CALM      30.28S
$$
MNZ065>067-074>077-082>085-091>093-281600-
   South Central Minnesota

CITY           SKY/WX    TMP DP  RH WIND       PRES   REMARKS
MANKATO        CLOUDY    64  57  77 N8        30.23S
NEW ULM        MOSUNNY   66  63  88 N9        30.23S
ST JAMES       MOSUNNY   72  61  68 N5        30.24F
FAIRMONT       CLOUDY    66  57  72 N8        30.24S
GLENCOE        MOSUNNY   65  59  79 NW3       30.23R
FARIBAULT      CLOUDY    68  57  68 NW8       30.22R
OWATONNA       CLOUDY    64  57  77 NW6       30.22R
WASECA         CLOUDY    63  54  72 NW7       30.24R
ALBERT LEA     CLOUDY    66  57  72 N5        30.22R
$$
MNZ078>079-086>088-094>096-281600-
   Southeast Minnesota

CITY           SKY/WX    TMP DP  RH WIND       PRES   REMARKS
ROCHESTER      PTSUNNY   66  57  72 VRB5      30.22S
RED WING       CLOUDY    66  57  72 W6        30.19R
STANTON        CLOUDY    67  58  72 NW5       30.20R
DODGE CENTER   PTSUNNY   66  57  72 N9        30.21R
WINONA         SUNNY     70  57  64 NW6       30.19R
AUSTIN         CLOUDY    66  57  72 N8        30.20S
PRESTON        CLOUDY    62  61  96 N7        30.21R
$$
ABBREVIATIONS USED IN REMARKS
   TC - TEMPERATURES IN CELSIUS
  WCI - WIND CHILL INDEX
   HX - HEAT INDEX
  VSB - VISIBILITY
$$



USA.gov is the U.S. government's official web portal to all federal, state and local government web resources and services.